Regional Weather Roundup
Issued by NWS

Home | Current Version | Previous Version | Graphics & Text | Print | Product List | Glossary Off
Versions: 1 2 3 4 5 6 7 8 9 10 11 12 13 14 15 16 17 18 19 20 21 22 23 24 25 26 27 28 29 30 31 32 33 34 35 36 37 38 39 40 41 42 43 44 45 46 47 48 49 50

000
ASUS43 KTOP 220759
RWRKS

WEATHER ROUNDUP FOR KANSAS
NATIONAL WEATHER SERVICE GOODLAND KS
200 AM CST THU FEB 22 2018

NOTE:  "FAIR" INDICATES FEW OR NO CLOUDS BELOW 12,000 FEET WITH NO
SIGNIFICANT WEATHER AND/OR OBSTRUCTIONS TO VISIBILITY.

KSZ001>006-013>018-027>032-041>047-220900-
NORTHWEST KANSAS

CITY           SKY/WX    TMP DP  RH WIND       PRES   REMARKS
GOODLAND       MOCLDY    15   6  67 SE6       30.23F
HAYS           CLOUDY    23  17  78 NE12      30.36F WCI  12
HILL CITY      CLOUDY    24   9  52 E10       30.35F WCI  14
RUSSELL        CLOUDY    24  21  88 NE7       30.36F
$$

KSZ061>065-074>080-084>089-220900-
SOUTHWEST KANSAS

CITY           SKY/WX    TMP DP  RH WIND       PRES   REMARKS
DODGE CITY     CLOUDY    21  14  74 E7        30.30F
GARDEN CITY    CLOUDY    22   4  46 E5        30.29F
GREAT BEND     MIX PCPN  22  20  92 NE8       30.36F FOG
LIBERAL        CLOUDY    23  10  57 CALM      30.28F
$$

KSZ066>073-081>083-090>101-220900-
SOUTHEAST KANSAS

CITY           SKY/WX    TMP DP  RH WIND       PRES   REMARKS
CHANUTE        FRZ RAIN  29  27  92 NE7       30.37R FOG
COFFEYVILLE    CLOUDY    30  29  96 NE7       30.36S
HUTCHINSON     CLOUDY    25  24  96 N5        30.37R FOG
MEDICINE LODGE   N/A     26  24  92 NE7       30.35F
NEWTON         FLURRIES  25  23  92 NE6       30.37S
PARSONS        CLOUDY    30  28  92 NE3       30.36S
WICHITA INTL   FRZ RAIN  27  25  92 NE8       30.36F
WICHITA JABRA  CLOUDY    25  25 100 NE7       30.36S FOG
WICHITA MCCONL FRZ RAIN  26  25  97 NE5       30.36  FOG
WINFIELD       CLOUDY    27  27 100 NE7       30.37F FOG
$$

KSZ007>012-019>026-033>040-048>060-102>105-220900-
NORTHEAST KANSAS

CITY           SKY/WX    TMP DP  RH WIND       PRES   REMARKS
CONCORDIA      MIX PCPN  23  22  96 NE7       30.41R
EMPORIA        CLOUDY    25  24  96 NE9       30.37F FOG
LAWRENCE       CLOUDY    27  25  92 NE6       30.42F FOG
MANHATTAN      FRZ RAIN  28  25  88 E6        30.41F FOG
OLATHE IND     FRZ RAIN  27  25  92 NE8       30.40F
OLATHE EXE     CLOUDY    25  25 100 NE8       30.39F
SALINA         CLOUDY    26  25  96 NE6       30.41S FOG
TOPEKA BILLARD LGT SNOW  28  27  96 NE8       30.42F FOG
TOPEKA FORBES  FRZ RAIN  28  26  92 NE7       30.41S FOG
$$



USA.gov is the U.S. government's official web portal to all federal, state and local government web resources and services.